Weather History for KGGE - November, 2014

Change the Weather History Date:

Thursday, November 6, 2014

  Actual Average Record
Temperature  
Mean Temperature 69 °F -  
Max Temperature 78 °F 70 °F 78 °F (2014)
Min Temperature 60 °F 46 °F 37 °F (2010)
Cooling Degree Days 4    
Growing Degree Days 19 (Base 50)    
Moisture  
Dew Point 62 °F    
Average Humidity 78    
Maximum Humidity 100    
Minimum Humidity 57    
Precipitation  
Precipitation 0.00 in - - ()
Sea Level Pressure  
Sea Level Pressure 30.00 in    
Wind  
Wind Speed 4 mph (SW)    
Max Wind Speed 21 mph    
Max Gust Speed 29 mph    
Visibility 9 miles    
Events Fog    
Averages and records for this station are not official NWS values.
T = Trace of Precipitation, MM = Missing Value Source: NWS Daily Summary

Daily Weather History Graph

Daily Weather History Graph

Search for Another Location

Airport or City:

Trip Planner

Search our weather history database for the weather conditions in past years. The results will help you decide how hot, cold, wet, or windy it might be!

Date:

Astronomy

Nov. 06, 2014 Rise Set
Actual Time 6:40 AM EST 5:21 PM EST
Civil Twilight 6:14 AM EST 5:47 PM EST
Nautical Twilight 5:44 AM EST 6:16 PM EST
Astronomical Twilight 5:15 AM EST 6:45 PM EST
Moon 5:26 PM EST (11/6) 6:11 AM EST (11/6)
Length of Visible Light 11h 32m
Length of Day
10h 41m
Full, 100% of the Moon is Illuminated
Nov 6
Full
Nov 6
Full
Nov 14
Last Quarter
Nov 22
New
Nov 29
First Quarter

Hourly Weather History & Observations

Time (EST) Temp. Dew Point Humidity Pressure Visibility Wind Dir Wind Speed Gust Speed Precip Events Conditions
12:15 AM - - N/A% 30.20 in 0.5 mi Calm Calm - N/A Fog Fog
12:35 AM - - N/A% 30.19 in 2.5 mi Calm Calm - N/A   Clear
12:55 AM - - N/A% 30.19 in 5.0 mi Calm Calm - N/A   Haze
1:15 AM - - N/A% 30.19 in 2.5 mi Calm Calm - N/A   Clear
1:35 AM - - N/A% 30.17 in 5.0 mi Calm Calm - N/A   Haze
1:55 AM - - N/A% 30.18 in 2.5 mi Calm Calm - N/A   Clear
2:15 AM - - N/A% 30.17 in 10.0 mi Calm Calm - N/A   Clear
2:35 AM - - N/A% 30.16 in 10.0 mi Calm Calm - N/A   Clear
2:55 AM - - N/A% 30.17 in 10.0 mi SW 4.6 mph - N/A   Mostly Cloudy
3:15 AM - - N/A% 30.15 in 10.0 mi Calm Calm - N/A   Mostly Cloudy
3:35 AM - - N/A% 30.14 in 10.0 mi Calm Calm - N/A   Clear
3:55 AM - - N/A% 30.14 in 10.0 mi Calm Calm - N/A   Clear
4:15 AM - - N/A% 30.13 in 10.0 mi Calm Calm - N/A   Clear
4:35 AM - - N/A% 30.13 in 10.0 mi Calm Calm - N/A   Clear
4:55 AM - - N/A% 30.14 in 10.0 mi Calm Calm - N/A   Clear
5:15 AM - - N/A% 30.13 in 10.0 mi Calm Calm - N/A   Clear
5:35 AM - - N/A% 30.12 in 10.0 mi Calm Calm - N/A   Clear
5:55 AM - - N/A% 30.12 in 10.0 mi SW 3.5 mph - N/A   Clear
6:15 AM - - N/A% 30.12 in 10.0 mi Calm Calm - N/A   Clear
6:35 AM - - N/A% 30.11 in 10.0 mi Calm Calm - N/A   Clear
6:55 AM - - N/A% 30.11 in 10.0 mi Calm Calm - N/A   Clear
7:15 AM - - N/A% 30.11 in 10.0 mi SW 3.5 mph - N/A   Mostly Cloudy
7:35 AM - - N/A% 30.12 in 10.0 mi Calm Calm - N/A   Overcast
7:55 AM - - N/A% 30.12 in 10.0 mi SSW 3.5 mph - N/A   Mostly Cloudy
8:15 AM 60.8 °F 60.8 °F 100% 30.11 in 10.0 mi SSW 3.5 mph - N/A   Scattered Clouds
8:35 AM 62.6 °F 62.6 °F 100% 30.11 in 10.0 mi SSW 3.5 mph - N/A   Clear
8:55 AM 64.4 °F 64.4 °F 100% 30.11 in 10.0 mi SSW 5.8 mph - N/A   Clear
9:15 AM 68.0 °F 64.4 °F 88% 30.11 in 10.0 mi SW 10.4 mph - N/A   Scattered Clouds
9:55 AM 71.6 °F 64.4 °F 78% 30.09 in 10.0 mi SW 6.9 mph - N/A   Clear
10:15 AM 71.6 °F 64.4 °F 78% 30.08 in 10.0 mi SSW 10.4 mph 17.3 mph N/A   Clear
10:35 AM 71.6 °F 64.4 °F 78% 30.07 in 10.0 mi SW 9.2 mph - N/A   Clear
10:55 AM 71.6 °F 62.6 °F 73% 30.05 in 10.0 mi SSW 9.2 mph - N/A   Clear
11:15 AM 71.6 °F 64.4 °F 78% 30.05 in 10.0 mi SW 8.1 mph - N/A   Clear
11:35 AM 71.6 °F 64.4 °F 78% 30.04 in 10.0 mi SW 9.2 mph - N/A   Clear
11:55 AM 73.4 °F 64.4 °F 73% 30.03 in 10.0 mi SW 10.4 mph - N/A   Clear
12:15 PM 75.2 °F 64.4 °F 69% 30.01 in 10.0 mi SW 11.5 mph - N/A   Clear
12:35 PM 77.0 °F 62.6 °F 61% 29.99 in 10.0 mi SW 20.7 mph 24.2 mph N/A   Clear
12:55 PM 75.2 °F 62.6 °F 65% 29.98 in 10.0 mi SW 15.0 mph 25.3 mph N/A   Scattered Clouds
1:15 PM 78.8 °F 62.6 °F 57% 29.96 in 10.0 mi SW 16.1 mph 21.9 mph N/A   Scattered Clouds
1:35 PM 75.2 °F 62.6 °F 65% 29.95 in 10.0 mi SW 15.0 mph 19.6 mph N/A   Scattered Clouds
1:55 PM 73.4 °F 62.6 °F 69% 29.94 in 10.0 mi SW 12.7 mph 18.4 mph N/A   Mostly Cloudy
2:15 PM 77.0 °F 62.6 °F 61% 29.93 in 10.0 mi SW 12.7 mph 20.7 mph N/A   Scattered Clouds
2:35 PM 77.0 °F 62.6 °F 61% 29.91 in 10.0 mi WSW 15.0 mph 24.2 mph N/A   Clear
2:55 PM 77.0 °F 62.6 °F 61% 29.89 in 10.0 mi SW 12.7 mph 28.8 mph N/A   Clear
3:15 PM 77.0 °F 62.6 °F 61% 29.89 in 10.0 mi SW 16.1 mph 23.0 mph N/A   Clear
3:35 PM 77.0 °F 62.6 °F 61% 29.88 in 10.0 mi SW 17.3 mph 23.0 mph N/A   Clear
3:55 PM 75.2 °F 62.6 °F 65% 29.88 in 10.0 mi SW 11.5 mph - N/A   Clear
4:15 PM 73.4 °F 62.6 °F 69% 29.88 in 10.0 mi SW 10.4 mph - N/A   Clear
4:35 PM 73.4 °F 62.6 °F 69% 29.87 in 10.0 mi SW 6.9 mph - N/A   Scattered Clouds
4:55 PM 71.6 °F 62.6 °F 73% 29.87 in 10.0 mi SW 9.2 mph - N/A   Overcast
5:15 PM 71.6 °F 62.6 °F 73% 29.86 in 10.0 mi SSW 8.1 mph - N/A   Overcast
5:35 PM 69.8 °F 62.6 °F 78% 29.86 in 10.0 mi South 8.1 mph - N/A   Overcast
5:55 PM 69.8 °F 62.6 °F 78% 29.86 in 10.0 mi SSW 8.1 mph - N/A   Overcast
6:15 PM 68.0 °F 62.6 °F 83% 29.86 in 10.0 mi SSW 10.4 mph - N/A   Scattered Clouds
6:35 PM 68.0 °F 62.6 °F 83% 29.85 in 10.0 mi SSW 10.4 mph - N/A   Clear
6:55 PM 68.0 °F 62.6 °F 83% 29.85 in 10.0 mi SW 9.2 mph - N/A   Mostly Cloudy
7:15 PM 68.0 °F 62.6 °F 83% 29.85 in 10.0 mi SSW 9.2 mph 17.3 mph N/A   Mostly Cloudy
7:35 PM 68.0 °F 62.6 °F 83% 29.84 in 10.0 mi SSW 9.2 mph - N/A   Mostly Cloudy
7:55 PM 68.0 °F 62.6 °F 83% 29.83 in 10.0 mi SSW 9.2 mph 16.1 mph N/A   Scattered Clouds
8:35 PM 64.4 °F 60.8 °F 88% 29.84 in 10.0 mi SW 9.2 mph - N/A   Clear
8:55 PM 66.2 °F 60.8 °F 83% 29.84 in 10.0 mi SW 12.7 mph - N/A   Clear
9:15 PM 66.2 °F 60.8 °F 83% 29.84 in 10.0 mi WSW 9.2 mph 18.4 mph N/A   Scattered Clouds
9:35 PM 64.4 °F 60.8 °F 88% 29.85 in 10.0 mi WSW 9.2 mph - N/A   Scattered Clouds
9:55 PM 64.4 °F 60.8 °F 88% 29.85 in 10.0 mi West 9.2 mph - N/A   Scattered Clouds
10:15 PM 64.4 °F 60.8 °F 88% 29.85 in 10.0 mi WSW 8.1 mph - N/A   Clear
10:35 PM 64.4 °F 60.8 °F 88% 29.85 in 10.0 mi West 8.1 mph - N/A   Clear
10:55 PM 62.6 °F 60.8 °F 94% 29.85 in 10.0 mi West 8.1 mph - N/A   Clear
11:15 PM 62.6 °F 60.8 °F 94% 29.85 in 10.0 mi West 9.2 mph - N/A   Clear
11:35 PM 62.6 °F 59.0 °F 88% 29.85 in 10.0 mi West 6.9 mph - N/A   Clear
11:55 PM 60.8 °F 59.0 °F 94% 29.85 in 10.0 mi West 8.1 mph - N/A   Clear